Temp
76 78 78 79 79 79 75 73 75 76 78 80 79 81 80 75 73 75 73 81 81 81 82 83 82 82 82 82 81 81 81 81 80 80 81 80 80 80 80 80 80 80 79
76 79 77 77 77 78 78 76 76 76 79 80 81 80 80 80 77 78 77 77 81 81 81 82 83 82 82 82 82 81 81 81 80 80 80 80 80 80 80 80 80 80 79
77 78 77 76 78 77 78 77 76 76 77 78 77 78 80 80 82 80 78 77 79 82 82 82 81 81 82 82 82 82 81 80 80 80 80 79 79 79 79 79 79 79 79
79 76 77 77 77 75 74 74 74 73 75 73 72 73 75 77 79 80 79 79 77 81 82 82 82 81 82 83 81 82 81 80 80 80 79 79 79 79 79 78 78 78 78
81 78 77 77 80 78 76 74 76 74 72 71 74 74 74 75 77 84 81 82 80 78 78 80 80 81 83 83 83 81 81 80 79 79 79 79 79 79 78 78 78 78 78
80 79 77 77 79 75 73 74 74 77 72 71 78 75 72 74 76 77 78 84 81 80 78 79 75 77 81 82 82 82 81 81 80 79 79 78 78 78 78 78 77 77 77
79 76 77 77 79 76 75 77 72 71 69 71 69 70 70 74 77 79 75 75 78 79 79 74 74 75 75 79 78 79 81 81 81 80 79 78 78 78 77 77 76 77 77
79 80 76 76 76 75 75 73 72 67 68 70 67 64 65 70 76 77 73 76 73 76 76 75 74 73 72 72 74 77 77 78 78 78 77 77 78 77 77 76 76 76 76
79 79 79 78 75 76 73 73 72 69 66 69 70 67 62 61 69 73 74 73 73 71 73 73 74 73 72 71 72 74 76 76 77 77 76 76 75 75 76 76 76 76 76
79 78 78 76 76 74 73 71 73 69 67 66 68 72 69 68 63 64 69 69 70 73 71 71 71 72 70 69 73 74 75 75 75 75 75 75 75 75 76 76 76 76 76
78 79 78 77 75 74 72 72 71 70 68 67 66 67 67 66 66 64 62 65 73 70 70 71 71 71 70 68 66 71 75 74 74 74 74 74 74 75 76 76 77 77 77
76 77 78 76 74 73 72 71 72 70 70 69 67 66 66 65 65 64 62 62 66 69 73 70 70 70 70 69 74 74 75 74 73 73 73 73 73 74 75 76 76 77 77
73 74 75 76 77 75 75 71 71 70 72 71 68 67 67 66 67 66 64 62 63 65 69 73 70 71 73 69 71 74 75 73 72 71 71 72 73 74 74 75 75 76 76
78 76 76 77 77 74 72 71 69 70 70 68 69 67 68 68 67 67 67 65 62 62 64 66 70 73 73 69 70 74 70 71 71 71 70 70 70 71 72 73 73 74 74
79 77 77 77 76 73 72 70 69 69 69 69 68 68 68 67 68 69 69 67 65 59 60 64 67 71 73 73 71 70 70 72 70 71 69 69 69 69 70 71 71 71 71
77 78 78 77 75 73 72 70 69 70 69 69 69 68 68 68 68 68 67 67 65 62 58 63 65 69 71 74 75 71 71 72 71 70 69 68 68 69 69 69 69 69 69
77 77 78 75 74 73 73 71 69 69 69 68 69 68 67 68 67 67 67 66 65 64 61 63 65 67 68 69 71 72 71 69 69 69 69 68 67 67 68 68 68 68 68
77 78 77 75 75 73 73 71 70 72 70 68 68 67 67 71 66 66 65 65 65 65 63 61 63 65 67 69 68 68 70 74 69 72 69 67 67 66 66 66 66 66 66
77 77 76 75 74 74 73 73 72 69 69 70 70 68 67 67 66 66 66 66 65 66 64 63 61 64 65 65 65 66 66 66 71 72 69 68 68 66 65 64 64 63 63
79 76 76 76 75 74 74 72 71 69 68 69 71 70 69 68 66 66 66 65 65 63 63 61 60 61 62 65 63 61 61 62 65 73 71 69 68 68 67 64 64 63 61
80 77 75 74 74 74 75 71 71 70 69 69 71 74 73 72 72 69 67 65 64 62 60 59 58 59 59 62 60 61 59 61 63 65 64 65 63 63 64 65 67 67 63
79 76 74 73 72 76 70 70 72 71 70 71 71 70 71 73 71 70 69 67 65 61 59 58 58 58 59 63 64 60 58 57 55 64 60 63 61 65 66 63 67 66 64
78 75 74 73 70 73 68 67 70 71 71 71 71 72 71 73 67 65 65 65 65 65 65 60 58 58 59 60 61 61 61 60 59 66 61 59 61 60 65 68 66 65 64
75 74 74 74 70 70 65 64 68 72 68 69 71 69 68 67 66 64 64 62 63 63 62 63 61 61 60 62 61 62 60 58 57 59 59 54 59 58 63 64 66 65 63
76 74 71 70 70 71 64 62 64 67 66 66 68 69 69 66 64 63 63 62 61 62 65 63 63 63 62 63 63 58 57 53 52 55 58 55 59 56 58 62 64 64 63
74 72 71 72 70 73 62 61 62 66 65 65 67 68 66 66 61 60 62 60 60 60 61 62 62 61 61 61 63 59 63 53 55 52 58 55 56 55 57 56 58 59 64
MSLP
1017.17 1017.48 1017.54 1017.53 1017.64 1017.64 1018.05 1018.20 1018.04 1017.94 1017.90 1017.79 1017.91 1017.98 1017.98 1018.78 1018.63 1018.26 1018.32 1018.52 1018.90 1019.03 1019.22 1019.26 1019.49 1019.85 1020.02 1020.26 1020.35 1020.45 1020.77 1020.98 1021.21 1021.38 1021.71 1022.05 1022.23 1022.37 1022.53 1022.71 1022.87 1022.92 1022.96
1017.06 1017.22 1017.40 1017.51 1017.41 1017.37 1017.65 1017.87 1017.94 1017.85 1017.82 1017.91 1017.82 1017.83 1017.77 1017.72 1018.33 1018.20 1018.35 1018.37 1018.70 1018.70 1018.79 1018.82 1019.22 1019.53 1019.66 1019.89 1020.13 1020.32 1020.66 1020.74 1020.88 1021.12 1021.38 1021.71 1021.96 1022.15 1022.34 1022.56 1022.72 1022.85 1022.93
1016.79 1016.95 1017.21 1017.47 1017.46 1017.45 1017.72 1017.67 1017.79 1017.81 1017.90 1017.78 1017.96 1017.72 1017.51 1017.62 1017.57 1017.72 1017.84 1018.12 1018.23 1018.28 1018.53 1018.70 1018.88 1019.24 1019.47 1019.66 1019.72 1019.98 1020.36 1020.54 1020.64 1020.82 1021.09 1021.40 1021.69 1021.88 1022.09 1022.30 1022.53 1022.65 1022.71
1016.51 1016.86 1017.09 1017.16 1017.32 1017.56 1017.67 1017.80 1018.11 1018.22 1018.08 1018.11 1018.05 1018.07 1018.03 1017.62 1017.45 1017.48 1017.54 1017.61 1017.87 1018.07 1018.23 1018.51 1018.78 1019.09 1019.31 1019.44 1019.54 1019.72 1020.02 1020.25 1020.45 1020.70 1020.95 1021.05 1021.28 1021.55 1021.72 1021.92 1022.12 1022.34 1022.48
1016.20 1016.73 1016.91 1017.04 1016.94 1017.44 1017.68 1017.98 1018.11 1018.19 1018.17 1018.14 1018.17 1018.09 1017.98 1017.69 1017.50 1017.27 1017.35 1017.46 1017.60 1017.71 1018.19 1018.50 1018.87 1018.96 1019.17 1019.33 1019.52 1019.68 1019.86 1019.92 1020.16 1020.44 1020.73 1020.92 1021.04 1021.22 1021.41 1021.57 1021.69 1021.85 1022.02
1016.10 1016.44 1016.74 1016.86 1016.88 1017.56 1017.82 1017.87 1018.08 1018.09 1018.16 1018.18 1018.12 1018.04 1017.78 1017.68 1017.33 1017.55 1017.55 1017.44 1017.99 1017.86 1018.08 1018.41 1018.93 1018.87 1018.89 1019.09 1019.26 1019.57 1019.74 1019.72 1019.87 1020.19 1020.49 1020.59 1020.70 1020.87 1021.02 1021.15 1021.34 1021.49 1021.65
1015.82 1016.27 1016.44 1016.69 1016.73 1017.40 1017.55 1017.80 1018.09 1018.28 1018.39 1018.13 1018.27 1018.20 1017.90 1017.67 1017.55 1017.70 1017.82 1017.92 1018.05 1018.25 1018.37 1018.78 1018.94 1018.89 1019.21 1019.47 1019.73 1019.49 1019.47 1019.67 1019.84 1019.92 1019.96 1020.10 1020.28 1020.40 1020.56 1020.67 1020.82 1020.99 1021.13
1015.52 1015.71 1016.11 1016.55 1016.77 1017.03 1017.54 1017.73 1017.93 1018.49 1018.59 1018.28 1018.67 1019.02 1018.92 1018.48 1017.94 1018.13 1017.95 1018.11 1018.40 1018.33 1018.71 1018.86 1019.03 1019.15 1019.54 1019.85 1019.83 1019.78 1019.80 1019.83 1019.97 1020.07 1020.03 1020.00 1020.09 1020.27 1020.31 1020.44 1020.57 1020.72 1020.78
1015.22 1015.50 1015.77 1015.97 1016.57 1017.00 1017.53 1017.67 1017.88 1018.19 1018.69 1018.59 1018.32 1018.66 1019.28 1019.29 1018.79 1018.53 1018.38 1018.26 1018.53 1018.77 1018.84 1018.86 1019.02 1019.22 1019.60 1019.80 1019.97 1019.98 1020.05 1020.16 1020.19 1020.17 1020.13 1020.18 1020.19 1020.16 1020.21 1020.28 1020.24 1020.34 1020.43
1014.95 1015.26 1015.55 1015.91 1016.32 1016.70 1017.22 1017.56 1017.74 1017.87 1018.27 1018.61 1018.50 1018.41 1018.52 1018.87 1019.29 1019.65 1019.09 1018.87 1018.72 1018.87 1018.97 1018.91 1019.07 1019.20 1019.42 1019.73 1019.83 1019.96 1020.14 1020.30 1020.42 1020.46 1020.42 1020.37 1020.36 1020.28 1020.22 1020.16 1020.10 1020.05 1020.09
1014.59 1014.79 1015.25 1015.78 1016.49 1016.88 1017.24 1017.51 1017.62 1017.69 1018.03 1018.50 1018.68 1018.65 1018.70 1018.89 1019.06 1019.61 1019.90 1019.57 1019.19 1018.91 1018.98 1018.78 1018.87 1019.01 1019.30 1019.59 1019.80 1019.89 1019.99 1020.17 1020.29 1020.42 1020.52 1020.47 1020.41 1020.35 1020.29 1020.19 1020.08 1019.93 1019.85
1014.39 1014.57 1014.88 1015.61 1016.15 1016.79 1017.08 1017.38 1017.55 1017.76 1017.84 1018.22 1018.53 1018.82 1018.89 1019.17 1019.19 1019.40 1019.81 1019.61 1019.44 1019.15 1018.90 1018.82 1018.77 1018.73 1018.90 1019.21 1019.38 1019.59 1019.77 1019.95 1020.14 1020.25 1020.34 1020.41 1020.33 1020.23 1020.14 1020.06 1020.04 1020.04 1019.90
1014.36 1014.71 1014.96 1015.47 1015.91 1016.31 1016.58 1016.96 1017.47 1017.81 1018.02 1018.16 1018.11 1018.48 1018.62 1018.92 1018.76 1018.85 1019.24 1019.53 1019.54 1019.20 1018.98 1018.73 1018.50 1018.40 1018.41 1018.79 1018.91 1019.26 1019.44 1019.47 1019.66 1019.83 1019.92 1020.02 1020.04 1019.97 1019.94 1019.89 1019.87 1019.85 1019.82
1013.73 1014.17 1014.66 1015.05 1015.46 1015.93 1016.40 1016.73 1017.33 1017.61 1017.83 1018.13 1018.30 1018.26 1018.36 1018.48 1018.67 1018.79 1018.98 1019.38 1019.67 1019.48 1019.23 1019.00 1018.61 1018.55 1018.46 1018.54 1018.78 1018.87 1019.13 1019.17 1019.26 1019.45 1019.49 1019.58 1019.58 1019.58 1019.60 1019.54 1019.48 1019.49 1019.48
1013.17 1013.68 1014.27 1014.66 1015.08 1015.48 1015.98 1016.70 1017.10 1017.43 1017.72 1017.88 1018.10 1018.21 1018.19 1018.22 1018.46 1018.48 1018.60 1018.82 1019.31 1019.97 1019.88 1019.33 1019.07 1018.46 1018.28 1018.49 1018.64 1018.76 1018.82 1018.65 1018.71 1018.84 1018.83 1018.87 1018.88 1019.01 1019.11 1019.09 1019.05 1019.11 1019.18
1012.58 1013.22 1013.64 1014.14 1014.70 1015.14 1015.68 1016.28 1016.76 1017.07 1017.51 1017.68 1017.90 1017.99 1018.05 1018.07 1018.24 1018.41 1018.59 1018.70 1018.90 1019.40 1019.83 1019.29 1019.07 1018.73 1018.39 1018.23 1018.10 1018.25 1018.33 1018.23 1018.19 1018.17 1018.28 1018.28 1018.27 1018.26 1018.31 1018.41 1018.49 1018.57 1018.60
1011.96 1012.39 1012.99 1013.75 1014.30 1014.87 1015.28 1015.85 1016.34 1016.71 1016.99 1017.25 1017.53 1017.87 1017.93 1017.98 1018.11 1018.30 1018.43 1018.60 1018.94 1019.15 1019.53 1019.17 1018.86 1018.61 1018.53 1018.30 1018.01 1017.84 1017.77 1017.68 1017.65 1017.70 1017.79 1017.81 1017.69 1017.73 1017.73 1017.68 1017.64 1017.73 1017.81
1011.22 1011.74 1012.49 1013.09 1013.63 1014.10 1014.64 1015.28 1015.89 1016.27 1016.75 1016.95 1017.05 1017.43 1017.61 1017.63 1017.90 1018.02 1018.25 1018.55 1018.72 1018.73 1019.03 1019.18 1018.67 1018.37 1018.18 1017.83 1017.62 1017.69 1017.32 1017.11 1017.17 1017.13 1017.13 1017.15 1017.09 1017.03 1016.93 1016.82 1016.68 1016.75 1016.79
1010.49 1011.12 1011.64 1012.15 1012.66 1013.30 1014.06 1014.65 1015.22 1015.68 1016.04 1016.33 1016.49 1016.92 1017.25 1017.30 1017.55 1017.65 1017.82 1018.05 1018.24 1018.30 1018.55 1018.84 1018.85 1018.31 1017.96 1017.80 1017.66 1017.50 1017.48 1017.36 1017.10 1016.75 1016.58 1016.46 1016.34 1016.41 1016.31 1016.32 1016.38 1016.24 1016.20
1009.69 1010.30 1010.71 1011.25 1011.86 1012.59 1013.27 1013.91 1014.62 1015.14 1015.50 1015.77 1016.17 1016.24 1016.48 1016.78 1016.96 1017.14 1017.36 1017.60 1017.78 1018.13 1018.37 1018.65 1018.72 1018.51 1018.28 1017.68 1017.51 1017.79 1017.61 1017.36 1017.07 1016.52 1016.26 1016.24 1016.20 1016.06 1016.04 1015.88 1015.95 1015.72 1015.53
1008.75 1009.45 1010.23 1010.93 1011.55 1012.20 1012.77 1013.56 1014.19 1014.69 1015.08 1015.30 1015.40 1015.74 1015.79 1015.98 1016.14 1016.28 1016.62 1016.88 1017.32 1017.84 1018.07 1018.35 1018.43 1018.24 1018.03 1017.76 1017.68 1017.47 1017.48 1017.36 1017.00 1016.59 1016.42 1016.26 1016.09 1016.19 1016.00 1015.74 1015.49 1015.23 1014.91
1008.22 1008.96 1009.66 1010.40 1011.27 1011.90 1012.59 1013.06 1013.53 1014.05 1014.49 1014.67 1014.93 1015.09 1015.15 1015.47 1015.67 1015.73 1015.84 1016.17 1016.48 1017.11 1017.66 1018.10 1018.10 1018.13 1017.72 1017.57 1017.44 1017.35 1017.15 1017.20 1017.01 1016.10 1016.47 1016.46 1016.17 1016.05 1015.39 1015.05 1014.70 1014.40 1014.01
1007.62 1008.44 1009.34 1010.28 1011.13 1011.68 1011.92 1012.34 1012.97 1013.65 1014.03 1014.25 1014.32 1014.59 1014.88 1014.92 1015.10 1015.52 1015.96 1016.11 1016.27 1016.54 1016.74 1017.09 1017.37 1017.28 1017.16 1016.78 1016.92 1016.92 1016.60 1016.57 1016.30 1015.64 1015.77 1015.89 1015.55 1015.44 1014.65 1014.21 1013.79 1013.46 1013.34
1007.21 1008.18 1009.11 1009.79 1010.51 1011.04 1011.69 1012.18 1012.56 1012.90 1013.36 1013.58 1013.78 1013.90 1014.32 1014.66 1015.04 1015.48 1016.05 1016.41 1016.26 1016.19 1016.33 1016.49 1016.49 1016.28 1016.21 1016.16 1016.36 1016.20 1016.11 1016.07 1015.92 1015.48 1015.48 1015.74 1014.91 1014.84 1014.22 1013.73 1013.24 1013.23 1013.02
1006.91 1007.76 1008.52 1009.41 1009.95 1010.42 1011.04 1011.44 1012.02 1012.64 1012.91 1013.09 1013.26 1013.52 1013.84 1014.33 1014.71 1015.26 1015.71 1016.04 1016.05 1015.95 1015.78 1015.82 1015.71 1015.53 1015.44 1015.54 1015.46 1015.84 1015.89 1016.14 1015.93 1015.34 1014.88 1015.02 1014.55 1014.20 1013.57 1013.11 1012.72 1012.46 1012.37
1006.27 1007.38 1008.18 1008.55 1009.44 1010.24 1010.54 1010.77 1011.41 1011.73 1012.16 1012.91 1013.03 1013.10 1013.35 1013.85 1014.20 1014.81 1015.16 1015.66 1015.88 1015.69 1015.54 1015.42 1015.42 1015.20 1015.07 1014.88 1014.75 1015.09 1015.05 1015.55 1015.58 1015.20 1014.21 1014.31 1013.95 1013.77 1013.10 1012.59 1012.43 1012.27 1011.95
Wind_Speed
2 2 3 3 2 3 3 2 1 3 3 3 3 3 2 9 8 4 3 13 14 14 15 14 14 13 13 13 13 13 12 12 10 10 11 10 9 9 8 7 5 6 6
4 3 2 2 2 2 2 2 2 1 3 3 4 3 3 3 10 7 5 5 16 14 13 14 14 15 15 15 14 14 13 13 12 11 10 8 8 8 9 9 8 7 5
5 3 1 1 2 2 3 1 3 4 3 3 4 4 4 5 1 7 5 5 7 13 11 12 13 13 14 15 15 14 14 13 13 12 12 11 9 9 10 9 8 8 7
7 5 3 3 2 3 3 1 1 2 3 3 3 3 2 3 3 4 3 3 5 5 10 12 12 13 13 13 12 14 14 14 13 12 12 13 12 11 10 10 10 10 9
7 4 3 3 2 3 2 2 1 2 1 3 3 2 3 2 2 2 4 3 5 4 3 6 7 7 10 10 9 10 11 13 13 14 14 12 12 12 12 12 11 11 11
5 5 3 3 3 4 3 2 1 2 1 2 2 4 3 2 3 4 4 5 4 7 6 6 2 3 8 6 6 8 9 9 11 12 12 13 13 13 13 12 12 12 12
6 6 4 2 3 4 4 3 2 3 3 1 3 4 4 2 3 4 3 4 5 5 9 6 3 3 4 8 10 7 1 5 8 9 11 12 13 13 14 13 13 13 13
8 6 5 4 5 4 4 4 4 1 2 2 2 2 3 5 3 2 4 4 6 5 6 6 6 5 5 4 7 9 8 7 4 3 7 2 8 10 11 13 13 14 14
5 6 6 5 5 4 4 4 4 3 2 3 1 4 3 0 2 2 2 3 6 3 4 5 6 6 6 5 6 6 8 7 5 5 4 3 3 3 3 4 5 7 12
7 7 7 7 5 5 6 4 4 3 3 2 2 1 2 4 3 2 3 2 1 4 5 3 5 6 6 5 8 9 9 7 5 3 3 4 4 4 4 5 5 6 7
8 8 8 7 6 4 5 6 5 5 2 3 2 1 1 1 2 3 2 2 2 2 3 5 5 5 6 5 5 8 11 9 7 5 1 2 3 5 5 6 6 6 8
5 6 8 7 6 6 7 5 4 5 4 3 1 2 3 1 2 2 2 2 2 2 4 4 5 5 5 6 9 13 12 10 8 6 5 4 4 4 5 6 6 7 7
3 6 6 7 7 6 6 6 5 3 3 2 3 2 2 1 0 2 3 1 0 2 0 3 5 5 5 5 7 12 13 12 11 11 10 8 8 8 8 7 7 7 7
8 8 9 9 9 7 7 6 4 4 4 4 3 2 2 1 1 1 3 3 2 2 2 2 1 2 2 4 7 14 6 10 10 11 12 12 12 12 11 11 11 11 10
8 10 10 12 10 8 8 7 5 5 5 5 5 4 3 2 1 1 1 3 4 1 3 3 1 3 1 2 4 5 6 10 13 14 13 13 13 13 13 13 13 12 12
8 12 13 12 11 9 8 8 6 5 6 5 4 6 5 2 1 1 1 2 2 4 2 4 2 2 1 1 5 7 7 9 12 14 13 15 15 17 15 14 14 14 14
10 14 14 12 11 11 10 8 7 7 8 7 5 6 6 5 3 2 2 1 2 3 3 4 3 3 3 3 4 4 6 6 5 11 13 15 15 15 17 16 15 16 16
13 14 13 14 13 12 12 11 10 8 8 8 8 7 7 4 5 5 3 3 3 3 4 5 3 2 3 5 5 5 5 4 4 7 10 12 15 16 16 19 18 17 17
12 14 15 15 15 14 12 11 11 8 7 10 8 7 7 7 6 5 5 4 3 2 2 2 3 2 3 3 4 2 2 3 3 9 12 13 13 9 13 14 16 16 17
14 15 15 15 14 13 13 11 10 9 7 7 8 9 8 8 8 7 6 6 5 3 1 2 3 3 3 3 1 1 4 2 4 5 5 5 6 7 8 10 14 14 15
14 13 13 11 11 11 10 11 10 10 8 8 9 9 9 10 12 11 6 6 5 4 3 3 3 3 3 2 3 3 2 2 4 3 2 4 2 3 5 6 8 12 14
13 11 12 12 10 9 11 15 13 10 10 10 9 8 8 12 10 14 12 11 10 6 4 4 2 4 5 3 2 2 3 2 3 2 2 6 2 7 8 4 11 15 13
11 12 11 10 7 9 16 17 16 8 9 10 10 8 7 7 9 7 6 7 7 8 7 5 6 6 5 4 2 4 3 3 4 6 2 6 3 6 7 7 13 15 16
10 10 9 10 8 7 8 11 15 10 7 8 9 8 8 7 5 6 6 5 6 5 6 5 7 8 6 7 5 5 6 4 3 5 3 5 4 5 5 5 10 12 11
10 9 8 8 11 9 14 12 10 8 7 7 6 6 8 6 7 7 6 6 6 5 5 11 12 13 11 11 13 1 5 2 4 4 3 4 4 4 3 5 6 11 11
11 10 11 12 12 10 14 16 10 4 5 3 5 6 7 6 8 13 8 6 6 5 5 5 3 4 7 7 12 7 7 4 4 3 4 2 4 3 7 3 3 4 8
Wind_Direction
108 151 193 120 139 167 128 284 252 291 292 349 12 8 347 162 178 202 174 201 215 193 188 185 184 192 195 195 193 189 192 189 186 190 197 195 198 206 213 212 232 245 236
152 136 47 59 320 65 98 187 233 247 334 346 292 250 246 213 179 194 188 195 229 199 195 189 194 199 200 200 205 199 201 199 196 196 197 202 209 209 220 218 227 244 267
151 132 89 305 316 164 118 87 357 349 334 347 337 215 239 270 157 184 173 195 200 200 200 200 200 202 208 211 205 205 208 205 203 201 201 205 212 214 226 219 231 239 247
149 155 198 252 150 162 106 68 337 337 22 354 319 314 267 200 182 189 175 168 191 190 204 202 200 203 207 220 219 210 208 208 210 210 212 210 213 220 215 219 226 231 240
150 164 213 230 272 128 161 181 135 164 17 346 334 4 12 53 22 38 161 196 98 157 132 209 202 212 211 218 227 229 216 209 207 214 217 223 224 220 222 227 229 233 230
177 181 200 206 225 111 151 149 139 10 352 266 334 350 299 295 71 40 75 94 99 98 104 116 66 248 216 213 231 237 238 214 208 216 222 221 222 226 224 226 231 232 234
177 179 206 195 191 173 169 139 104 49 336 316 42 349 332 287 95 81 95 88 85 101 96 102 93 65 82 75 53 50 245 244 233 231 228 221 222 224 227 226 225 229 234
185 187 180 207 168 138 125 136 112 73 359 342 129 90 2 339 34 103 94 77 52 101 108 112 101 109 90 100 91 78 72 77 53 11 31 339 244 247 245 239 234 234 236
173 167 186 161 175 152 154 154 143 131 112 306 74 134 49 246 344 357 70 108 110 107 126 122 114 105 124 124 106 94 89 75 67 55 43 42 346 334 333 315 293 279 255
184 184 164 159 152 154 146 153 153 133 126 121 330 167 121 151 130 26 333 344 110 137 146 149 146 133 143 144 148 144 129 119 101 71 36 23 9 346 323 292 285 288 282
179 177 160 161 148 139 136 149 152 143 122 131 135 100 71 29 94 125 230 317 295 251 202 171 175 164 162 153 156 162 155 150 151 148 107 358 335 324 318 315 308 290 278
166 175 149 150 143 144 159 172 153 145 157 122 126 82 103 177 194 130 116 277 206 250 238 183 180 194 168 173 175 174 174 173 177 181 190 222 245 270 288 298 306 309 312
159 166 149 155 156 157 168 160 154 167 164 164 153 142 97 353 336 134 122 207 145 281 192 227 233 184 187 173 180 175 189 190 194 201 206 221 243 253 257 270 280 286 290
176 170 165 160 163 161 161 163 156 171 175 182 206 170 154 237 35 124 161 138 360 341 347 317 29 304 272 157 180 183 201 209 210 216 219 227 234 239 244 247 249 258 269
175 178 164 168 170 168 165 161 176 184 185 190 209 212 194 213 110 42 112 144 150 186 299 314 12 359 139 111 200 188 207 215 212 218 222 232 238 237 237 239 242 242 245
158 173 176 171 173 171 168 171 178 189 186 196 201 204 229 204 166 21 0 168 114 147 200 203 269 259 288 177 207 199 223 225 218 219 221 230 238 245 245 236 234 241 243
163 173 174 171 176 175 178 176 186 189 190 195 199 197 207 186 186 191 144 134 168 162 179 295 214 226 233 245 275 250 234 236 237 227 232 243 244 247 250 250 239 232 237
177 177 175 179 183 180 182 181 187 192 200 198 199 185 196 188 210 218 193 207 204 190 164 227 267 287 285 284 248 268 262 240 240 256 249 240 244 246 247 241 240 244 240
180 181 181 185 186 185 182 189 193 191 194 204 196 193 199 192 206 205 206 208 213 210 167 178 268 263 250 252 292 265 274 286 275 258 261 269 283 276 267 245 246 247 250
187 184 189 190 189 181 183 179 183 191 199 202 204 196 193 205 207 202 201 204 214 218 191 203 250 259 249 287 126 108 303 287 289 295 300 296 304 313 293 269 263 253 249
194 184 182 184 181 180 183 173 188 194 201 209 206 207 206 209 205 197 191 207 181 179 177 222 240 233 248 237 211 227 240 275 286 253 266 285 342 309 295 287 267 254 245
197 177 178 175 174 188 170 178 184 192 199 206 216 213 213 214 218 199 190 175 176 173 194 196 232 240 263 260 257 239 197 209 277 241 117 289 263 288 276 256 260 275 271
185 176 171 163 167 185 186 189 191 198 203 212 217 217 215 214 180 186 229 212 189 198 196 181 222 216 245 225 249 269 255 229 228 282 303 277 240 261 266 272 270 275 271
167 163 157 169 165 181 207 202 201 201 198 210 212 204 209 219 194 181 183 215 228 216 224 225 223 241 224 250 225 239 242 248 295 272 195 256 265 252 260 259 282 281 274
153 158 161 157 177 182 192 195 187 199 204 212 211 212 222 218 199 194 189 214 240 251 249 225 223 237 248 256 261 214 267 238 273 256 230 198 265 265 238 273 266 265 287
152 147 167 176 178 192 193 196 183 174 178 224 247 252 229 219 196 196 193 193 236 253 250 294 306 277 252 262 255 210 255 234 263 308 261 192 270 282 301 246 259 270 269